Regional Weather Roundup
Issued by NWS San Diego, CA

Home | Current Version | Previous Version | Text Only | Print | Product List | Glossary On
Versions: 1 2 3 4 5 6 7 8 9 10 11 12 13 14 15 16 17 18 19 20 21 22 23 24 25 26 27 28 29 30 31 32 33 34 35 36 37 38 39 40 41 42 43 44 45 46 47 48 49 50
000
ASUS46 KSGX 280111
RWRSGX

SAN DIEGO HOURLY WEATHER ROUNDUP
NATIONAL WEATHER SERVICE SAN DIEGO CA
600 PM PDT THU AUG 27 2015

NOTE: "FAIR" INDICATES FEW OR NO CLOUDS BELOW 12,000 FEET WITH NO
SIGNIFICANT WEATHER AND/OR OBSTRUCTIONS TO VISIBILITY.

CAZ042-043-060-061-PZZ750-775-280200-

GREATER SAN DIEGO AREA

CITY           SKY/WX    TMP DP  RH WIND       PRES   REMARKS
LINDBERGH FLD  MOSUNNY   85  61  44 W5        29.90S
POINT LOMA       N/A     82  69  65 W10         N/A
NATIONAL CITY    N/A     80  70  72 S3        29.89F
CHULA VISTA      N/A     82  71  70 W6        29.82F
IMPERIAL BEACH MOSUNNY   82  69  64 SW9       29.90S
BROWN FIELD    SUNNY     83  61  47 W8        29.90F
MIRAMAR MCAS   MOSUNNY   92  42  17 W9        29.90S
MONTGOMERY FLD SUNNY     85  62  46 W7        29.90F

$$

NORTH SAN DIEGO COUNTY

CITY           SKY/WX    TMP DP  RH WIND       PRES   REMARKS
CAMP PENDLETON SUNNY     80  65  59 SW9       29.88S
OCEANSIDE AP   SUNNY     80  67  64 W8        29.87F
OCEANSIDE HBR    N/A     76  72  86 SW9       29.91S
VISTA            N/A     85  65  50 SW2       29.86F
CARLSBAD       SUNNY     79  66  64 SW7       29.89S
DEL MAR          N/A     76  71  83 CALM      29.91F
FALLBROOK        N/A     87  57  36 S6        29.86R
ESCONDIDO        N/A     92  55  28 W5        29.90S
SAN MARCOS       N/A     86  58  38 W5        29.87S
POWAY            N/A     94  53  24 CALM      29.89S

$$

EAST SAN DIEGO COUNTY

CITY           SKY/WX    TMP DP  RH WIND       PRES   REMARKS
RAMONA         SUNNY     91  45  20 W8        29.94S
SANTEE LAKES     N/A     92  49  22 SW5       29.86F
LA MESA          N/A     90  45  20 W7        29.82S
JAMUL            N/A     90  60  35 CALM      29.87F
DESCANSO N       N/A     88  47  23 W3        29.76F
CAMPO            N/A     91  52  26 W13       29.96F

$$

ORANGE COUNTY AND THE LOS ANGELES BASIN

CITY           SKY/WX    TMP DP  RH WIND       PRES   REMARKS
JOHN WAYNE AP  MOSUNNY   83  60  45 SW8       29.87S
LAGUNA BEACH     N/A     83  72  70 CALM      29.83F
LAKE FOREST FR   N/A     93  54  26 W3        29.75F
SANTA ANA        N/A     91  63  39 CALM      29.81F
HUNTINGTON BCH   N/A     82  70  68 W9        29.87F
LOS ALAMITOS   SUNNY     91  63  39 VRB6      29.85F
FULLERTON      SUNNY     93  56  28 VRB6      29.84F
LONG BEACH     SUNNY     92  53  26 NW10      29.86F
L.A. AP        MOSUNNY   79  65  62 W12       29.88S
L.A. DOWNTOWN  SUNNY     86  59  39 CALM      29.86F

$$

THE INLAND EMPIRE

CITY           SKY/WX    TMP DP  RH WIND       PRES   REMARKS
CORONA         SUNNY     95  55  25 W12       29.86F
CHINO          MOSUNNY   97  58  27 W14       29.87F HX  96
ONTARIO        MOSUNNY   97  53  22 W13       29.87F
RIVERSIDE AP   SUNNY     95  57  27 W14       29.87S
MORENO VALLEY    N/A     97  49  19 W3        29.88F
MARCH ARB      SUNNY     95  49  20 NW15      29.91S
HORSETHIEF CYN   N/A     99  43  14 N6        29.86F HX  95
PERRIS           N/A     96  46  17 W7        29.90S
MENIFEE          N/A    102  51  17 NE5       29.92F HX  99
HEMET EAST       N/A     96  46  17 SW5       29.87S
FRENCH VALLEY  FAIR      93  50  22 S15       29.91S
TEMECULA         N/A     94  46  19 SW12      29.87S

$$

SAN BERNARDINO AND RIVERSIDE COUNTY MOUNTAINS

CITY           SKY/WX    TMP DP  RH WIND       PRES   REMARKS
BIG BEAR AP    MOSUNNY   73  45  35 W5        30.32S
PINE COVE        N/A     77  48  35 NW3       29.88F

$$

SOUTHERN DESERT INCLUDING THE COACHELLA VALLEY

CITY           SKY/WX    TMP DP  RH WIND       PRES   REMARKS
PALM SPRINGS   MOSUNNY  109  57  18 SE10      29.77F HX 109
THOUSAND PALMS   N/A    108  58  19 SE7       29.73F HX 108
PALM DESERT      N/A    109  62  22 CALM        N/A  HX 111
THERMAL        MOSUNNY  106  59  21 SE12      29.71F HX 106
BLYTHE         PTSUNNY  106  59  21 SW7       29.77F HX 106
IMPERIAL AP    MOSUNNY  108  58  19 W3        29.73F HX 108
EL CENTRO NAS  MOSUNNY  107  55  18 S3        29.75F HX 106
YUMA AZ        PTSUNNY  107  62  23 SW8       29.77R HX 109
MEXICALI       PTSUNNY  106  57  20 SE8       29.76  HX 105

$$

UPPER DESERT

CITY           SKY/WX    TMP DP  RH WIND       PRES   REMARKS
VICTORVILLE AP SUNNY     99  37  12 W9        29.98F
HESPERIA         N/A     94  51  22 SW3       29.92F
APPLE VALLEY     N/A     95  47  19 S8        30.01F
PALMDALE       SUNNY     97  45  16 W17       29.98R
LANCASTER      SUNNY     98  37  12 W23       29.97R
EDWARDS AFB    MOSUNNY  100  35  10 W17       29.92S
DAGGETT        SUNNY    105  39  10 NW9       29.89F HX  99
29 PALMS N     MOSUNNY  102  49  16 CALM      29.95F HX  99
NEEDLES        MOSUNNY  108  52  15 NE9       29.82F HX 105

$$

REGIONAL REPORTS

CITY           SKY/WX    TMP DP  RH WIND       PRES   REMARKS
SANTA BARBARA  MOSUNNY   76  64  66 SW10      29.86F
SANDBERG       SUNNY     84  36  18 NW15G24   30.18F
LAS VEGAS NV   MOSUNNY  100  49  17 N3        29.90F HX  97
PHOENIX AZ     LGT RAIN  84  71  65 SW8       29.88F
TIJUANA        SUNNY     86  52  30 W12       29.92F
ENSENADA NW      N/A     76  32  20 W8        29.87F

$$

OFFSHORE ISLANDS

CITY           SKY/WX    TMP DP  RH WIND       PRES   REMARKS
CATALINA ARPT  SUNNY     86  45  23 W8        29.96F
SAN CLEMENTE I MOSUNNY   71  67  84 SW9       29.87F
SAN NICOLAS IS MOSUNNY   79  63  57 W16       29.90F

$$

MARINE AND OFFSHORE BUOY REPORTS

STATION/POSITION SKY/WX   TEMP    WIND        PRES    SWELL
                          AIR SEA DIR/SP/G            HT/PER/DIR
                          (F)     (DEG/KT/KT) (MB)    (FT/S/D)
TANNER BANKS               69 70  310/ 14/ 16 1012.2F   3/270/14
S CLEMENTE BASIN           70 72  260/  8/  8 1011.8F   3/250/16
SO. S. ROSA ISLA           68 68  300/ 14/ 17 1011.1F   2/10
W. S. BARBARA CH           68 68  300/ 17/ 21 1011.0F   2/290/14
M. S. BARBARA CH           71 71  260/ 10/ 12 1012.5F
S. MONICA BASIN            74 75  280/ 10/ 12 1011.5F   2/240/15
S PEDRO CHANNEL               74                N/A     2/250/13
DANA POINT                    74                N/A     2/270/14
OCEANSIDE OFFSHR              76                N/A     2/200/17
TORREY PINES OTR              76                N/A     2/220/13
LA JOLLA 1                 76 72  260/  4/  5 1012.4S
MISSION BAY BUOY              76                N/A     2/240/13
SAN DIEGO BAY                 77              1012.9F
POINT LOMA SOUTH              74                N/A     2/240/15

$$



USA.gov is the U.S. government's official web portal to all federal, state and local government web resources and services.